Time,TemperatureF,DewpointF,PressureIn,WindDirection,WindDirectionDegrees,WindSpeedMPH,WindSpeedGustMPH,Humidity,HourlyPrecipIn,Conditions,Clouds,dailyrainin,SoftwareType,DateUTC
2013-02-28 00:00:00,39.0,26.3,29.46,WNW,292,9.0,9.0,60,0.00,CLR,,0.00,WeatherDisplay:10.37,2013-02-28 06:00:00,
2013-02-28 00:05:00,39.0,26.7,29.45,NW,315,10.4,10.4,61,0.00,CLR,,0.00,WeatherDisplay:10.37,2013-02-28 06:05:00,
2013-02-28 00:10:00,39.0,26.7,29.45,NW,315,11.5,11.5,61,0.00,CLR,,0.00,WeatherDisplay:10.37,2013-02-28 06:10:00,
2013-02-28 00:15:00,39.0,26.7,29.45,NNE,22,7.0,7.0,61,0.00,CLR,,0.00,WeatherDisplay:10.37,2013-02-28 06:15:00,
2013-02-28 00:20:00,39.0,27.5,29.45,NNW,337,8.1,8.1,63,0.00,CLR,,0.00,WeatherDisplay:10.37,2013-02-28 06:20:00,
2013-02-28 00:25:00,39.0,27.1,29.45,NNW,337,11.5,11.5,62,0.00,CLR,,0.00,WeatherDisplay:10.37,2013-02-28 06:25:00,
2013-02-28 00:30:00,39.0,27.1,29.45,NW,315,9.2,9.2,62,0.00,CLR,,0.00,WeatherDisplay:10.37,2013-02-28 06:30:00,
2013-02-28 00:35:00,38.0,26.5,29.45,NNW,337,8.1,8.1,63,0.00,CLR,,0.00,WeatherDisplay:10.37,2013-02-28 06:35:00,
2013-02-28 00:40:00,38.0,26.5,29.45,WNW,292,9.2,9.2,63,0.00,CLR,,0.00,WeatherDisplay:10.37,2013-02-28 06:40:00,
2013-02-28 00:45:00,38.0,26.9,29.45,WSW,247,8.1,8.1,64,0.00,CLR,,0.00,WeatherDisplay:10.37,2013-02-28 06:45:00,
2013-02-28 00:50:00,38.0,26.9,29.45,NNW,337,10.4,10.4,64,0.00,CLR,,0.00,WeatherDisplay:10.37,2013-02-28 06:50:00,
2013-02-28 00:55:00,38.0,26.9,29.45,NNW,337,9.2,9.2,64,0.00,CLR,,0.00,WeatherDisplay:10.37,2013-02-28 06:55:00,
2013-02-28 01:00:00,38.0,26.9,29.45,WNW,292,8.1,8.1,64,0.00,CLR,,0.00,WeatherDisplay:10.37,2013-02-28 07:00:00,
2013-02-28 01:05:00,38.0,26.9,29.45,NNW,337,8.1,8.1,64,0.00,CLR,,0.00,WeatherDisplay:10.37,2013-02-28 07:05:00,
2013-02-28 01:10:00,38.0,26.9,29.46,NW,315,5.8,5.8,64,0.00,CLR,,0.00,WeatherDisplay:10.37,2013-02-28 07:10:00,
2013-02-28 01:15:00,38.0,26.9,29.46,WNW,292,6.9,6.9,64,0.00,CLR,,0.00,WeatherDisplay:10.37,2013-02-28 07:15:00,
2013-02-28 01:20:00,37.0,26.3,29.47,WNW,292,5.8,5.8,65,0.00,CLR,,0.00,WeatherDisplay:10.37,2013-02-28 07:20:00,
2013-02-28 01:25:00,37.0,26.3,29.47,NW,315,8.1,8.1,65,0.00,CLR,,0.00,WeatherDisplay:10.37,2013-02-28 07:25:00,
2013-02-28 01:30:00,37.0,26.3,29.46,NW,315,6.9,6.9,65,0.00,CLR,,0.00,WeatherDisplay:10.37,2013-02-28 07:30:00,
2013-02-28 01:35:00,37.0,27.1,29.46,West,270,5.8,5.8,67,0.00,CLR,,0.00,WeatherDisplay:10.37,2013-02-28 07:35:00,
2013-02-28 01:40:00,37.0,27.1,29.46,NNW,337,4.0,4.0,67,0.00,CLR,,0.00,WeatherDisplay:10.37,2013-02-28 07:40:00,
2013-02-28 01:45:00,37.0,27.1,29.46,NW,315,4.6,4.6,67,0.00,CLR,,0.00,WeatherDisplay:10.37,2013-02-28 07:45:00,
2013-02-28 01:50:00,36.0,26.5,29.46,WNW,292,5.8,5.8,68,0.00,CLR,,0.00,WeatherDisplay:10.37,2013-02-28 07:50:00,
2013-02-28 01:55:00,36.0,26.5,29.46,NW,315,6.0,6.0,68,0.00,CLR,,0.00,WeatherDisplay:10.37,2013-02-28 07:55:00,
2013-02-28 02:00:00,36.0,26.8,29.46,NNW,337,6.0,6.0,69,0.00,CLR,,0.00,WeatherDisplay:10.37,2013-02-28 08:00:00,
2013-02-28 02:05:00,36.0,26.8,29.46,NW,315,5.8,5.8,69,0.00,CLR,,0.00,WeatherDisplay:10.37,2013-02-28 08:05:00,
2013-02-28 02:10:00,36.0,26.8,29.46,NW,315,5.8,5.8,69,0.00,CLR,,0.00,WeatherDisplay:10.37,2013-02-28 08:10:00,
2013-02-28 02:15:00,35.0,26.2,29.46,WNW,292,3.5,3.5,70,0.00,CLR,,0.00,WeatherDisplay:10.37,2013-02-28 08:15:00,
2013-02-28 02:20:00,35.0,26.5,29.46,NW,315,4.6,4.6,71,0.00,CLR,,0.00,WeatherDisplay:10.37,2013-02-28 08:20:00,
2013-02-28 02:26:00,35.0,26.5,29.46,NW,315,6.9,6.9,71,0.00,CLR,,0.00,WeatherDisplay:10.37,2013-02-28 08:26:00,
2013-02-28 02:31:00,35.0,26.5,29.46,WNW,292,3.5,3.5,71,0.00,CLR,,0.00,WeatherDisplay:10.37,2013-02-28 08:31:00,
2013-02-28 02:36:00,35.0,26.9,29.46,West,270,5.0,5.0,72,0.00,CLR,,0.00,WeatherDisplay:10.37,2013-02-28 08:36:00,
2013-02-28 02:41:00,35.0,26.9,29.47,WNW,292,6.9,6.9,72,0.00,CLR,,0.00,WeatherDisplay:10.37,2013-02-28 08:41:00,
2013-02-28 02:46:00,35.0,26.9,29.47,WNW,292,7.0,7.0,72,0.00,CLR,,0.00,WeatherDisplay:10.37,2013-02-28 08:46:00,
2013-02-28 02:51:00,35.0,26.9,29.46,West,270,6.0,6.0,72,0.00,CLR,,0.00,WeatherDisplay:10.37,2013-02-28 08:51:00,
2013-02-28 02:56:00,35.0,26.9,29.46,NW,315,5.8,5.8,72,0.00,CLR,,0.00,WeatherDisplay:10.37,2013-02-28 08:56:00,
2013-02-28 03:01:00,35.0,27.2,29.45,WNW,292,6.9,6.9,73,0.00,CLR,,0.00,WeatherDisplay:10.37,2013-02-28 09:01:00,
2013-02-28 03:06:00,35.0,27.5,29.46,NNW,337,6.0,6.0,74,0.00,CLR,,0.00,WeatherDisplay:10.37,2013-02-28 09:06:00,
2013-02-28 03:11:00,35.0,27.5,29.45,WNW,292,5.8,5.8,74,0.00,CLR,,0.00,WeatherDisplay:10.37,2013-02-28 09:11:00,
2013-02-28 03:16:00,35.0,27.5,29.45,WSW,247,4.6,4.6,74,0.00,CLR,,0.00,WeatherDisplay:10.37,2013-02-28 09:16:00,
2013-02-28 03:21:00,34.0,27.2,29.45,NNW,337,5.8,5.8,76,0.00,CLR,,0.00,WeatherDisplay:10.37,2013-02-28 09:21:00,
2013-02-28 03:26:00,34.0,26.9,29.45,West,270,6.9,6.9,75,0.00,CLR,,0.00,WeatherDisplay:10.37,2013-02-28 09:26:00,
2013-02-28 03:31:00,34.0,26.9,29.45,WNW,292,5.8,5.8,75,0.00,CLR,,0.00,WeatherDisplay:10.37,2013-02-28 09:31:00,
2013-02-28 03:36:00,34.0,27.2,29.45,NW,315,6.0,6.0,76,0.00,CLR,,0.00,WeatherDisplay:10.37,2013-02-28 09:36:00,
2013-02-28 03:41:00,34.0,27.2,29.45,NW,315,7.0,7.0,76,0.00,CLR,,0.00,WeatherDisplay:10.37,2013-02-28 09:41:00,
2013-02-28 03:46:00,34.0,27.2,29.45,NNW,337,6.0,6.0,76,0.00,CLR,,0.00,WeatherDisplay:10.37,2013-02-28 09:46:00,
2013-02-28 03:51:00,34.0,27.2,29.45,WNW,292,8.1,8.1,76,0.00,CLR,,0.00,WeatherDisplay:10.37,2013-02-28 09:51:00,
2013-02-28 03:56:00,34.0,27.2,29.45,NW,315,3.5,3.6,76,0.00,CLR,,0.00,WeatherDisplay:10.37,2013-02-28 09:56:00,
2013-02-28 04:01:00,34.0,27.5,29.45,WNW,292,5.8,5.8,77,0.00,CLR,,0.00,WeatherDisplay:10.37,2013-02-28 10:01:00,
2013-02-28 04:06:00,34.0,27.5,29.45,WNW,292,4.6,4.6,77,0.00,CLR,,0.00,WeatherDisplay:10.37,2013-02-28 10:06:00,
2013-02-28 04:11:00,34.0,27.5,29.45,West,270,7.0,7.0,77,0.00,CLR,,0.00,WeatherDisplay:10.37,2013-02-28 10:11:00,
2013-02-28 04:16:00,33.0,26.6,29.45,WNW,292,5.8,5.8,77,0.00,CLR,,0.00,WeatherDisplay:10.37,2013-02-28 10:16:00,
2013-02-28 04:21:00,33.0,27.2,29.45,WNW,292,6.0,6.0,79,0.00,CLR,,0.00,WeatherDisplay:10.37,2013-02-28 10:21:00,
2013-02-28 04:26:00,33.0,27.2,29.45,NW,315,6.9,6.9,79,0.00,CLR,,0.00,WeatherDisplay:10.37,2013-02-28 10:26:00,
2013-02-28 04:31:00,33.0,27.5,29.45,NW,315,6.0,6.0,80,0.00,CLR,,0.00,WeatherDisplay:10.37,2013-02-28 10:31:00,
2013-02-28 04:36:00,34.0,28.2,29.45,West,270,8.1,8.1,79,0.00,CLR,,0.00,WeatherDisplay:10.37,2013-02-28 10:36:00,
2013-02-28 04:41:00,34.0,28.5,29.45,NNW,337,6.0,6.0,80,0.00,CLR,,0.00,WeatherDisplay:10.37,2013-02-28 10:41:00,
2013-02-28 04:46:00,34.0,28.5,29.45,NW,315,6.9,6.9,80,0.00,CLR,,0.00,WeatherDisplay:10.37,2013-02-28 10:46:00,
2013-02-28 04:51:00,34.0,28.5,29.46,North,360,5.8,5.8,80,0.00,CLR,,0.00,WeatherDisplay:10.37,2013-02-28 10:51:00,
2013-02-28 04:56:00,34.0,28.8,29.46,WNW,292,5.8,5.8,81,0.00,CLR,,0.00,WeatherDisplay:10.37,2013-02-28 10:56:00,
2013-02-28 05:01:00,34.0,28.8,29.46,West,270,5.8,5.8,81,0.00,CLR,,0.00,WeatherDisplay:10.37,2013-02-28 11:01:00,
2013-02-28 05:06:00,33.0,27.8,29.46,NW,315,5.8,5.8,81,0.00,CLR,,0.00,WeatherDisplay:10.37,2013-02-28 11:06:00,
2013-02-28 05:11:00,34.0,29.1,29.46,West,270,4.6,4.6,82,0.00,CLR,,0.00,WeatherDisplay:10.37,2013-02-28 11:11:00,
2013-02-28 05:16:00,34.0,28.8,29.46,NW,315,5.8,5.8,81,0.00,CLR,,0.00,WeatherDisplay:10.37,2013-02-28 11:16:00,
2013-02-28 05:21:00,33.0,28.1,29.46,West,270,6.0,6.0,82,0.00,CLR,,0.00,WeatherDisplay:10.37,2013-02-28 11:21:00,
2013-02-28 05:26:00,33.0,28.1,29.46,NW,315,4.0,4.0,82,0.00,CLR,,0.00,WeatherDisplay:10.37,2013-02-28 11:26:00,
2013-02-28 05:31:00,34.0,29.1,29.46,NNW,337,7.0,7.0,82,0.00,CLR,,0.00,WeatherDisplay:10.37,2013-02-28 11:31:00,
2013-02-28 05:36:00,34.0,29.1,29.46,NW,315,5.0,5.0,82,0.00,CLR,,0.00,WeatherDisplay:10.37,2013-02-28 11:36:00,
2013-02-28 05:41:00,34.0,29.1,29.46,NW,315,5.8,5.8,82,0.00,CLR,,0.00,WeatherDisplay:10.37,2013-02-28 11:41:00,
2013-02-28 05:46:00,33.0,28.4,29.46,NW,315,4.6,4.9,83,0.00,CLR,,0.00,WeatherDisplay:10.37,2013-02-28 11:46:00,
2013-02-28 05:51:00,33.0,28.1,29.47,NW,315,5.8,5.8,82,0.00,CLR,,0.00,WeatherDisplay:10.37,2013-02-28 11:51:00,
2013-02-28 05:56:00,33.0,28.7,29.46,NW,315,8.1,8.1,84,0.00,CLR,,0.00,WeatherDisplay:10.37,2013-02-28 11:56:00,
2013-02-28 06:01:00,33.0,28.7,29.46,NW,315,3.5,3.5,84,0.00,CLR,,0.00,WeatherDisplay:10.37,2013-02-28 12:01:00,
2013-02-28 06:06:00,33.0,28.7,29.46,West,270,5.8,5.8,84,0.00,CLR,,0.00,WeatherDisplay:10.37,2013-02-28 12:06:00,
2013-02-28 06:11:00,33.0,28.7,29.47,NW,315,5.8,5.8,84,0.00,CLR,,0.00,WeatherDisplay:10.37,2013-02-28 12:11:00,
2013-02-28 06:16:00,33.0,29.0,29.47,NNE,22,6.9,6.9,85,0.00,CLR,,0.00,WeatherDisplay:10.37,2013-02-28 12:16:00,
2013-02-28 06:21:00,32.0,28.0,29.46,NNW,337,6.0,6.0,85,0.00,CLR,,0.00,WeatherDisplay:10.37,2013-02-28 12:21:00,
2013-02-28 06:26:00,32.0,28.3,29.47,NNW,337,6.9,6.9,86,0.00,CLR,,0.00,WeatherDisplay:10.37,2013-02-28 12:26:00,
2013-02-28 06:31:00,32.0,28.3,29.46,WNW,292,9.2,9.2,86,0.00,CLR,,0.00,WeatherDisplay:10.37,2013-02-28 12:31:00,
2013-02-28 06:36:00,33.0,29.3,29.46,NW,315,10.4,10.4,86,0.00,CLR,,0.00,WeatherDisplay:10.37,2013-02-28 12:36:00,
2013-02-28 06:41:00,33.0,29.3,29.46,NNW,337,6.0,6.0,86,0.00,CLR,,0.00,WeatherDisplay:10.37,2013-02-28 12:41:00,
2013-02-28 06:46:00,33.0,29.3,29.47,NW,315,5.8,5.8,86,0.00,CLR,,0.00,WeatherDisplay:10.37,2013-02-28 12:46:00,
2013-02-28 06:51:00,33.0,29.0,29.47,NNW,337,6.9,6.9,85,0.00,CLR,,0.00,WeatherDisplay:10.37,2013-02-28 12:51:00,
2013-02-28 06:56:00,33.0,28.7,29.47,NW,315,6.0,6.0,84,0.00,CLR,,0.00,WeatherDisplay:10.37,2013-02-28 12:56:00,
2013-02-28 07:02:00,33.0,28.7,29.47,NW,315,9.0,9.0,84,0.00,CLR,,0.00,WeatherDisplay:10.37,2013-02-28 13:02:00,
2013-02-28 07:07:00,33.0,28.4,29.47,WNW,292,9.2,9.2,83,0.00,CLR,,0.00,WeatherDisplay:10.37,2013-02-28 13:07:00,
2013-02-28 07:12:00,33.0,28.4,29.47,NW,315,9.2,9.2,83,0.00,CLR,,0.00,WeatherDisplay:10.37,2013-02-28 13:12:00,
2013-02-28 07:17:00,34.0,29.1,29.47,NW,315,10.4,10.4,82,0.00,CLR,,0.00,WeatherDisplay:10.37,2013-02-28 13:17:00,
2013-02-28 07:22:00,34.0,28.8,29.47,NW,315,10.4,10.4,81,0.00,CLR,,0.00,WeatherDisplay:10.37,2013-02-28 13:22:00,
2013-02-28 07:27:00,34.0,28.5,29.47,WNW,292,9.2,9.2,80,0.00,CLR,,0.00,WeatherDisplay:10.37,2013-02-28 13:27:00,
2013-02-28 07:32:00,35.0,29.1,29.47,North,360,9.0,9.0,79,0.00,CLR,,0.00,WeatherDisplay:10.37,2013-02-28 13:32:00,
2013-02-28 07:37:00,35.0,28.8,29.47,WNW,292,10.4,10.4,78,0.00,CLR,,0.00,WeatherDisplay:10.37,2013-02-28 13:37:00,
2013-02-28 07:42:00,35.0,28.5,29.47,NW,315,9.2,9.2,77,0.00,CLR,,0.00,WeatherDisplay:10.37,2013-02-28 13:42:00,
2013-02-28 07:47:00,36.0,29.5,29.47,NW,315,10.4,10.4,77,0.00,CLR,,0.00,WeatherDisplay:10.37,2013-02-28 13:47:00,
2013-02-28 07:52:00,36.0,29.2,29.48,WNW,292,13.8,13.8,76,0.00,CLR,,0.00,WeatherDisplay:10.37,2013-02-28 13:52:00,
2013-02-28 07:57:00,37.0,29.5,29.48,WNW,292,11.5,11.5,74,0.00,CLR,,0.00,WeatherDisplay:10.37,2013-02-28 13:57:00,
2013-02-28 08:02:00,37.0,28.8,29.48,WNW,292,12.0,12.0,72,0.00,CLR,,0.00,WeatherDisplay:10.37,2013-02-28 14:02:00,
2013-02-28 08:07:00,38.0,29.4,29.49,WNW,292,11.5,11.5,71,0.00,CLR,,0.00,WeatherDisplay:10.37,2013-02-28 14:07:00,
2013-02-28 08:12:00,38.0,29.1,29.49,NE,45,12.7,12.7,70,0.00,CLR,,0.00,WeatherDisplay:10.37,2013-02-28 14:12:00,
2013-02-28 08:17:00,38.0,28.7,29.49,NNW,337,11.5,11.5,69,0.00,CLR,,0.00,WeatherDisplay:10.37,2013-02-28 14:17:00,
2013-02-28 08:22:00,39.0,29.3,29.49,West,270,11.5,11.5,68,0.00,CLR,,0.00,WeatherDisplay:10.37,2013-02-28 14:22:00,
2013-02-28 08:27:00,39.0,29.0,29.50,NW,315,11.5,11.5,67,0.00,CLR,,0.00,WeatherDisplay:10.37,2013-02-28 14:27:00,
2013-02-28 08:32:00,40.0,29.6,29.50,West,270,11.0,11.0,66,0.00,CLR,,0.00,WeatherDisplay:10.37,2013-02-28 14:32:00,
2013-02-28 08:37:00,40.0,29.6,29.51,WNW,292,9.2,9.2,66,0.00,CLR,,0.00,WeatherDisplay:10.37,2013-02-28 14:37:00,
2013-02-28 08:42:00,40.0,29.2,29.51,West,270,10.4,10.4,65,0.00,CLR,,0.00,WeatherDisplay:10.37,2013-02-28 14:42:00,
2013-02-28 08:47:00,40.0,29.2,29.51,WNW,292,10.0,10.0,65,0.00,CLR,,0.00,WeatherDisplay:10.37,2013-02-28 14:47:00,
2013-02-28 08:52:00,41.0,29.7,29.51,WNW,292,16.1,16.1,64,0.00,CLR,,0.00,WeatherDisplay:10.37,2013-02-28 14:52:00,
2013-02-28 08:57:00,41.0,29.4,29.51,NE,45,10.4,10.4,63,0.00,CLR,,0.00,WeatherDisplay:10.37,2013-02-28 14:57:00,
2013-02-28 09:02:00,41.0,29.0,29.51,WNW,292,12.7,12.7,62,0.00,CLR,,0.00,WeatherDisplay:10.37,2013-02-28 15:02:00,
2013-02-28 09:07:00,42.0,29.9,29.52,NW,315,9.2,10.9,62,0.00,CLR,,0.00,WeatherDisplay:10.37,2013-02-28 15:07:00,
2013-02-28 09:12:00,42.0,29.5,29.52,NNW,337,12.0,12.0,61,0.00,CLR,,0.00,WeatherDisplay:10.37,2013-02-28 15:12:00,
2013-02-28 09:17:00,42.0,29.1,29.52,WNW,292,9.2,9.2,60,0.00,CLR,,0.00,WeatherDisplay:10.37,2013-02-28 15:17:00,
2013-02-28 09:22:00,42.0,29.1,29.52,WNW,292,11.5,11.5,60,0.00,CLR,,0.00,WeatherDisplay:10.37,2013-02-28 15:22:00,
2013-02-28 09:27:00,42.0,28.7,29.52,NNW,337,10.4,10.4,59,0.00,CLR,,0.00,WeatherDisplay:10.37,2013-02-28 15:27:00,
2013-02-28 09:32:00,43.0,29.6,29.52,NW,315,7.0,7.0,59,0.00,CLR,,0.00,WeatherDisplay:10.37,2013-02-28 15:32:00,
2013-02-28 09:37:00,43.0,29.2,29.53,NNE,22,9.2,9.2,58,0.00,CLR,,0.00,WeatherDisplay:10.37,2013-02-28 15:37:00,
2013-02-28 09:42:00,44.0,30.2,29.53,NNW,337,9.2,9.2,58,0.00,CLR,,0.00,WeatherDisplay:10.37,2013-02-28 15:42:00,
2013-02-28 09:47:00,44.0,29.3,29.53,WNW,292,9.2,9.2,56,0.00,CLR,,0.00,WeatherDisplay:10.37,2013-02-28 15:47:00,
2013-02-28 09:52:00,44.0,29.7,29.53,NW,315,5.0,5.0,57,0.00,CLR,,0.00,WeatherDisplay:10.37,2013-02-28 15:52:00,
2013-02-28 09:57:00,45.0,29.8,29.53,NW,315,9.2,9.2,55,0.00,CLR,,0.00,WeatherDisplay:10.37,2013-02-28 15:57:00,
2013-02-28 10:02:00,45.0,28.9,29.54,NNW,337,6.9,6.9,53,0.00,CLR,,0.00,WeatherDisplay:10.37,2013-02-28 16:02:00,
2013-02-28 10:07:00,45.0,28.9,29.54,WNW,292,5.8,5.8,53,0.00,CLR,,0.00,WeatherDisplay:10.37,2013-02-28 16:07:00,
2013-02-28 10:12:00,45.0,27.5,29.54,NW,315,10.4,10.4,50,0.00,CLR,,0.00,WeatherDisplay:10.37,2013-02-28 16:12:00,
2013-02-28 10:17:00,45.0,27.5,29.54,NW,315,11.5,11.5,50,0.00,CLR,,0.00,WeatherDisplay:10.37,2013-02-28 16:17:00,
2013-02-28 10:22:00,46.0,28.4,29.53,NNW,337,9.2,9.2,50,0.00,CLR,,0.00,WeatherDisplay:10.37,2013-02-28 16:22:00,
2013-02-28 10:27:00,46.0,28.4,29.53,West,270,10.4,10.4,50,0.00,CLR,,0.00,WeatherDisplay:10.37,2013-02-28 16:27:00,
2013-02-28 10:32:00,47.0,28.3,29.54,NW,315,10.4,10.4,48,0.00,CLR,,0.00,WeatherDisplay:10.37,2013-02-28 16:32:00,
2013-02-28 10:37:00,47.0,28.3,29.54,NW,315,10.4,10.4,48,0.00,CLR,,0.00,WeatherDisplay:10.37,2013-02-28 16:37:00,
2013-02-28 10:42:00,47.0,27.3,29.54,NNW,337,9.2,9.2,46,0.00,CLR,,0.00,WeatherDisplay:10.37,2013-02-28 16:42:00,
2013-02-28 10:47:00,47.0,27.8,29.54,NNW,337,9.2,9.2,47,0.00,CLR,,0.00,WeatherDisplay:10.37,2013-02-28 16:47:00,
2013-02-28 10:52:00,47.0,27.8,29.54,NW,315,14.0,14.0,47,0.00,CLR,,0.00,WeatherDisplay:10.37,2013-02-28 16:52:00,
2013-02-28 10:57:00,47.0,27.8,29.54,WNW,292,15.0,15.0,47,0.00,CLR,,0.00,WeatherDisplay:10.37,2013-02-28 16:57:00,
2013-02-28 11:02:00,47.0,27.3,29.54,West,270,10.4,10.4,46,0.00,CLR,,0.00,WeatherDisplay:10.37,2013-02-28 17:02:00,
2013-02-28 11:07:00,48.0,27.6,29.54,NW,315,10.4,10.4,45,0.00,CLR,,0.00,WeatherDisplay:10.37,2013-02-28 17:07:00,
2013-02-28 11:12:00,48.0,27.6,29.54,WNW,292,15.0,15.0,45,0.00,CLR,,0.00,WeatherDisplay:10.37,2013-02-28 17:12:00,
2013-02-28 11:17:00,48.0,27.6,29.54,WNW,292,11.5,11.5,45,0.00,CLR,,0.00,WeatherDisplay:10.37,2013-02-28 17:17:00,
2013-02-28 11:22:00,48.0,27.6,29.54,North,360,10.0,10.0,45,0.00,CLR,,0.00,WeatherDisplay:10.37,2013-02-28 17:22:00,
2013-02-28 11:27:00,49.0,29.1,29.53,NW,315,11.5,11.5,46,0.00,CLR,,0.00,WeatherDisplay:10.37,2013-02-28 17:27:00,
2013-02-28 11:32:00,49.0,27.5,29.53,WNW,292,11.5,11.5,43,0.00,CLR,,0.00,WeatherDisplay:10.37,2013-02-28 17:32:00,
2013-02-28 11:37:00,49.0,28.6,29.53,NNW,337,9.2,9.2,45,0.00,CLR,,0.00,WeatherDisplay:10.37,2013-02-28 17:37:00,
2013-02-28 11:42:00,49.0,28.0,29.53,WNW,292,13.0,13.0,44,0.00,CLR,,0.00,WeatherDisplay:10.37,2013-02-28 17:42:00,
2013-02-28 11:47:00,49.0,28.0,29.53,West,270,12.0,12.0,44,0.00,CLR,,0.00,WeatherDisplay:10.37,2013-02-28 17:47:00,
2013-02-28 11:52:00,50.0,28.4,29.53,WNW,292,11.5,11.6,43,0.00,CLR,,0.00,WeatherDisplay:10.37,2013-02-28 17:52:00,
2013-02-28 11:57:00,50.0,28.4,29.53,NW,315,15.0,15.0,43,0.00,CLR,,0.00,WeatherDisplay:10.37,2013-02-28 17:57:00,
2013-02-28 12:02:00,50.0,28.4,29.52,NW,315,12.0,12.0,43,0.00,CLR,,0.00,WeatherDisplay:10.37,2013-02-28 18:02:00,
2013-02-28 12:07:00,50.0,27.8,29.52,NW,315,9.2,9.2,42,0.00,CLR,,0.00,WeatherDisplay:10.37,2013-02-28 18:07:00,
2013-02-28 12:12:00,50.0,27.2,29.52,West,270,10.4,10.4,41,0.00,CLR,,0.00,WeatherDisplay:10.37,2013-02-28 18:12:00,
2013-02-28 12:17:00,51.0,28.7,29.52,WNW,292,8.1,8.1,42,0.00,CLR,,0.00,WeatherDisplay:10.37,2013-02-28 18:17:00,
2013-02-28 12:23:00,51.0,28.1,29.52,West,270,14.0,14.0,41,0.00,CLR,,0.00,WeatherDisplay:10.37,2013-02-28 18:23:00,
2013-02-28 12:28:00,51.0,28.1,29.52,WNW,292,10.4,10.4,41,0.00,CLR,,0.00,WeatherDisplay:10.37,2013-02-28 18:28:00,
2013-02-28 12:33:00,51.0,28.1,29.52,WNW,292,14.0,14.0,41,0.00,CLR,,0.00,WeatherDisplay:10.37,2013-02-28 18:33:00,
2013-02-28 12:38:00,51.0,27.5,29.52,WNW,292,10.4,10.4,40,0.00,CLR,,0.00,WeatherDisplay:10.37,2013-02-28 18:38:00,
2013-02-28 12:43:00,52.0,29.0,29.51,WNW,292,12.0,12.0,41,0.00,CLR,,0.00,WeatherDisplay:10.37,2013-02-28 18:43:00,
2013-02-28 12:48:00,52.0,28.4,29.51,NW,315,14.0,14.0,40,0.00,CLR,,0.00,WeatherDisplay:10.37,2013-02-28 18:48:00,
2013-02-28 12:53:00,52.0,27.8,29.50,WNW,292,13.0,13.0,39,0.00,CLR,,0.00,WeatherDisplay:10.37,2013-02-28 18:53:00,
2013-02-28 12:58:00,52.0,27.8,29.50,NNW,337,12.7,12.7,39,0.00,CLR,,0.00,WeatherDisplay:10.37,2013-02-28 18:58:00,
2013-02-28 13:03:00,52.0,27.1,29.50,NNW,337,11.5,11.5,38,0.00,CLR,,0.00,WeatherDisplay:10.37,2013-02-28 19:03:00,
2013-02-28 13:08:00,52.0,27.8,29.49,NW,315,8.0,8.0,39,0.00,CLR,,0.00,WeatherDisplay:10.37,2013-02-28 19:08:00,
2013-02-28 13:13:00,52.0,27.1,29.49,North,360,10.4,10.4,38,0.00,CLR,,0.00,WeatherDisplay:10.37,2013-02-28 19:13:00,
2013-02-28 13:18:00,53.0,28.0,29.49,NW,315,11.5,11.5,38,0.00,CLR,,0.00,WeatherDisplay:10.37,2013-02-28 19:18:00,
2013-02-28 13:23:00,53.0,27.4,29.49,WNW,292,12.0,12.0,37,0.00,CLR,,0.00,WeatherDisplay:10.37,2013-02-28 19:23:00,
2013-02-28 13:28:00,53.0,28.0,29.49,NNW,337,13.0,13.0,38,0.00,CLR,,0.00,WeatherDisplay:10.37,2013-02-28 19:28:00,
2013-02-28 13:33:00,54.0,27.6,29.49,WNW,292,11.5,11.5,36,0.00,CLR,,0.00,WeatherDisplay:10.37,2013-02-28 19:33:00,
2013-02-28 13:38:00,54.0,27.6,29.48,NW,315,10.4,10.4,36,0.00,CLR,,0.00,WeatherDisplay:10.37,2013-02-28 19:38:00,
2013-02-28 13:43:00,54.0,26.9,29.48,West,270,11.5,11.5,35,0.00,CLR,,0.00,WeatherDisplay:10.37,2013-02-28 19:43:00,
2013-02-28 13:48:00,54.0,25.5,29.48,West,270,10.4,10.4,33,0.00,CLR,,0.00,WeatherDisplay:10.37,2013-02-28 19:48:00,
2013-02-28 13:53:00,54.0,25.5,29.48,NW,315,11.5,11.5,33,0.00,CLR,,0.00,WeatherDisplay:10.37,2013-02-28 19:53:00,
2013-02-28 13:58:00,55.0,27.1,29.47,NNW,337,11.5,11.5,34,0.00,CLR,,0.00,WeatherDisplay:10.37,2013-02-28 19:58:00,
2013-02-28 14:03:00,55.0,26.4,29.47,NW,315,11.5,11.5,33,0.00,CLR,,0.00,WeatherDisplay:10.37,2013-02-28 20:03:00,
2013-02-28 14:08:00,55.0,26.4,29.47,NW,315,9.2,9.2,33,0.00,CLR,,0.00,WeatherDisplay:10.37,2013-02-28 20:08:00,
2013-02-28 14:13:00,55.0,26.4,29.47,WNW,292,12.0,12.0,33,0.00,CLR,,0.00,WeatherDisplay:10.37,2013-02-28 20:13:00,
2013-02-28 14:18:00,55.0,25.6,29.47,NNW,337,13.0,13.0,32,0.00,CLR,,0.00,WeatherDisplay:10.37,2013-02-28 20:18:00,
2013-02-28 14:23:00,55.0,24.9,29.47,NW,315,12.7,12.7,31,0.00,CLR,,0.00,WeatherDisplay:10.37,2013-02-28 20:23:00,
2013-02-28 14:28:00,56.0,26.5,29.47,WNW,292,13.0,13.0,32,0.00,CLR,,0.00,WeatherDisplay:10.37,2013-02-28 20:28:00,
2013-02-28 14:33:00,56.0,25.8,29.47,NW,315,11.5,11.5,31,0.00,CLR,,0.00,WeatherDisplay:10.37,2013-02-28 20:33:00,
2013-02-28 14:38:00,56.0,25.8,29.47,WNW,292,9.2,9.2,31,0.00,CLR,,0.00,WeatherDisplay:10.37,2013-02-28 20:38:00,
2013-02-28 14:43:00,56.0,25.8,29.47,NW,315,10.4,10.4,31,0.00,CLR,,0.00,WeatherDisplay:10.37,2013-02-28 20:43:00,
2013-02-28 14:48:00,56.0,24.2,29.46,NNW,337,11.5,11.5,29,0.00,CLR,,0.00,WeatherDisplay:10.37,2013-02-28 20:48:00,
2013-02-28 14:53:00,56.0,25.8,29.46,NNW,337,10.4,10.4,31,0.00,CLR,,0.00,WeatherDisplay:10.37,2013-02-28 20:53:00,
2013-02-28 14:58:00,57.0,25.0,29.46,NNW,337,8.1,8.1,29,0.00,CLR,,0.00,WeatherDisplay:10.37,2013-02-28 20:58:00,
2013-02-28 15:03:00,57.0,26.6,29.46,NNW,337,10.0,10.0,31,0.00,CLR,,0.00,WeatherDisplay:10.37,2013-02-28 21:03:00,
2013-02-28 15:08:00,56.0,25.0,29.46,NW,315,12.7,12.7,30,0.00,CLR,,0.00,WeatherDisplay:10.37,2013-02-28 21:08:00,
2013-02-28 15:13:00,57.0,26.6,29.46,NNW,337,12.0,12.0,31,0.00,CLR,,0.00,WeatherDisplay:10.37,2013-02-28 21:13:00,
2013-02-28 15:18:00,57.0,26.6,29.46,North,360,15.0,15.0,31,0.00,CLR,,0.00,WeatherDisplay:10.37,2013-02-28 21:18:00,
2013-02-28 15:23:00,57.0,27.4,29.46,WNW,292,11.5,11.5,32,0.00,CLR,,0.00,WeatherDisplay:10.37,2013-02-28 21:23:00,
2013-02-28 15:28:00,57.0,26.6,29.45,West,270,9.2,9.2,31,0.00,CLR,,0.00,WeatherDisplay:10.37,2013-02-28 21:28:00,
2013-02-28 15:33:00,57.0,27.4,29.45,WNW,292,9.2,9.2,32,0.00,CLR,,0.00,WeatherDisplay:10.37,2013-02-28 21:33:00,
2013-02-28 15:38:00,57.0,27.4,29.45,NNW,337,11.5,11.5,32,0.00,CLR,,0.00,WeatherDisplay:10.37,2013-02-28 21:38:00,
2013-02-28 15:43:00,57.0,26.6,29.45,NNW,337,10.4,10.4,31,0.00,CLR,,0.00,WeatherDisplay:10.37,2013-02-28 21:43:00,
2013-02-28 15:48:00,57.0,25.0,29.45,WNW,292,12.0,12.0,29,0.00,CLR,,0.00,WeatherDisplay:10.37,2013-02-28 21:48:00,
2013-02-28 15:53:00,57.0,25.8,29.45,NNW,337,17.3,17.3,30,0.00,CLR,,0.00,WeatherDisplay:10.37,2013-02-28 21:53:00,
2013-02-28 15:58:00,57.0,26.6,29.45,NW,315,6.9,6.9,31,0.00,CLR,,0.00,WeatherDisplay:10.37,2013-02-28 21:58:00,
2013-02-28 16:03:00,58.0,26.7,29.45,WNW,292,21.0,21.0,30,0.00,CLR,,0.00,WeatherDisplay:10.37,2013-02-28 22:03:00,
2013-02-28 16:08:00,57.0,25.8,29.45,WNW,292,16.0,16.0,30,0.00,CLR,,0.00,WeatherDisplay:10.37,2013-02-28 22:08:00,
2013-02-28 16:13:00,57.0,26.6,29.45,NW,315,15.0,15.0,31,0.00,CLR,,0.00,WeatherDisplay:10.37,2013-02-28 22:13:00,
2013-02-28 16:18:00,57.0,26.6,29.45,NW,315,6.9,7.0,31,0.00,CLR,,0.00,WeatherDisplay:10.37,2013-02-28 22:18:00,
2013-02-28 16:23:00,57.0,25.8,29.45,NW,315,9.2,9.2,30,0.00,CLR,,0.00,WeatherDisplay:10.37,2013-02-28 22:23:00,
2013-02-28 16:28:00,57.0,25.8,29.45,NW,315,17.3,17.3,30,0.00,CLR,,0.00,WeatherDisplay:10.37,2013-02-28 22:28:00,
2013-02-28 16:33:00,57.0,26.6,29.45,West,270,10.4,10.4,31,0.00,CLR,,0.00,WeatherDisplay:10.37,2013-02-28 22:33:00,
2013-02-28 16:38:00,57.0,26.6,29.45,WNW,292,11.5,11.5,31,0.00,CLR,,0.00,WeatherDisplay:10.37,2013-02-28 22:38:00,
2013-02-28 16:43:00,57.0,25.8,29.45,WNW,292,13.8,13.8,30,0.00,CLR,,0.00,WeatherDisplay:10.37,2013-02-28 22:43:00,
2013-02-28 16:48:00,57.0,26.6,29.45,WNW,292,10.4,10.4,31,0.00,CLR,,0.00,WeatherDisplay:10.37,2013-02-28 22:48:00,
2013-02-28 16:53:00,57.0,26.6,29.45,NNW,337,11.5,11.5,31,0.00,CLR,,0.00,WeatherDisplay:10.37,2013-02-28 22:53:00,
2013-02-28 16:58:00,57.0,26.6,29.45,NW,315,12.7,12.7,31,0.00,CLR,,0.00,WeatherDisplay:10.37,2013-02-28 22:58:00,
2013-02-28 17:03:00,57.0,25.8,29.44,NW,315,10.4,10.4,30,0.00,CLR,,0.00,WeatherDisplay:10.37,2013-02-28 23:03:00,
2013-02-28 17:08:00,57.0,25.8,29.44,West,270,12.0,12.0,30,0.00,CLR,,0.00,WeatherDisplay:10.37,2013-02-28 23:08:00,
2013-02-28 17:13:00,57.0,25.8,29.44,NW,315,10.4,10.4,30,0.00,CLR,,0.00,WeatherDisplay:10.37,2013-02-28 23:13:00,
2013-02-28 17:18:00,57.0,26.6,29.45,WNW,292,11.5,11.5,31,0.00,CLR,,0.00,WeatherDisplay:10.37,2013-02-28 23:18:00,
2013-02-28 17:23:00,57.0,26.6,29.45,NW,315,9.2,9.2,31,0.00,CLR,,0.00,WeatherDisplay:10.37,2013-02-28 23:23:00,
2013-02-28 17:29:00,56.0,25.0,29.44,NNW,337,11.5,11.5,30,0.00,CLR,,0.00,WeatherDisplay:10.37,2013-02-28 23:29:00,
2013-02-28 17:34:00,56.0,25.8,29.45,NW,315,12.7,12.7,31,0.00,CLR,,0.00,WeatherDisplay:10.37,2013-02-28 23:34:00,
2013-02-28 17:39:00,56.0,25.8,29.44,WNW,292,10.4,10.4,31,0.00,CLR,,0.00,WeatherDisplay:10.37,2013-02-28 23:39:00,
2013-02-28 17:44:00,56.0,26.5,29.44,WNW,292,8.1,8.1,32,0.00,CLR,,0.00,WeatherDisplay:10.37,2013-02-28 23:44:00,
2013-02-28 17:49:00,55.0,24.9,29.44,WNW,292,11.5,11.5,31,0.00,CLR,,0.00,WeatherDisplay:10.37,2013-02-28 23:49:00,
2013-02-28 17:54:00,55.0,24.1,29.44,West,270,11.5,11.5,30,0.00,CLR,,0.00,WeatherDisplay:10.37,2013-02-28 23:54:00,
2013-02-28 17:59:00,55.0,24.1,29.44,NW,315,12.0,12.0,30,0.00,CLR,,0.00,WeatherDisplay:10.37,2013-02-28 23:59:00,
2013-02-28 18:04:00,54.0,23.2,29.43,NW,315,12.7,12.7,30,0.00,CLR,,0.00,WeatherDisplay:10.37,2013-03-01 00:04:00,
2013-02-28 18:09:00,54.0,24.0,29.44,NW,315,11.5,11.5,31,0.00,CLR,,0.00,WeatherDisplay:10.37,2013-03-01 00:09:00,
2013-02-28 18:14:00,54.0,24.0,29.44,NW,315,11.5,11.5,31,0.00,CLR,,0.00,WeatherDisplay:10.37,2013-03-01 00:14:00,
2013-02-28 18:19:00,53.0,24.6,29.44,NNW,337,8.0,8.0,33,0.00,CLR,,0.00,WeatherDisplay:10.37,2013-03-01 00:19:00,
2013-02-28 18:24:00,53.0,24.6,29.44,West,270,9.2,9.2,33,0.00,CLR,,0.00,WeatherDisplay:10.37,2013-03-01 00:24:00,
2013-02-28 18:29:00,52.0,23.8,29.44,NW,315,5.8,5.8,33,0.00,CLR,,0.00,WeatherDisplay:10.37,2013-03-01 00:29:00,
2013-02-28 18:34:00,52.0,24.5,29.44,NNE,22,6.0,6.0,34,0.00,CLR,,0.00,WeatherDisplay:10.37,2013-03-01 00:34:00,
2013-02-28 18:39:00,51.0,23.6,29.44,NNE,22,3.5,3.5,34,0.00,CLR,,0.00,WeatherDisplay:10.37,2013-03-01 00:39:00,
2013-02-28 18:44:00,51.0,23.6,29.45,NW,315,3.5,3.8,34,0.00,CLR,,0.00,WeatherDisplay:10.37,2013-03-01 00:44:00,
2013-02-28 18:49:00,50.0,23.4,29.45,WNW,292,4.6,4.6,35,0.00,CLR,,0.00,WeatherDisplay:10.37,2013-03-01 00:49:00,
2013-02-28 18:54:00,50.0,24.1,29.45,NW,315,3.5,3.5,36,0.00,CLR,,0.00,WeatherDisplay:10.37,2013-03-01 00:54:00,
2013-02-28 18:59:00,49.0,23.8,29.45,WNW,292,3.5,3.5,37,0.00,CLR,,0.00,WeatherDisplay:10.37,2013-03-01 00:59:00,
2013-02-28 19:04:00,48.0,23.6,29.45,NW,315,3.5,3.5,38,0.00,CLR,,0.00,WeatherDisplay:10.37,2013-03-01 01:04:00,
2013-02-28 19:09:00,48.0,23.6,29.45,NW,315,4.6,4.6,38,0.00,CLR,,0.00,WeatherDisplay:10.37,2013-03-01 01:09:00,
2013-02-28 19:14:00,48.0,24.2,29.45,WNW,292,3.5,3.5,39,0.00,CLR,,0.00,WeatherDisplay:10.37,2013-03-01 01:14:00,
2013-02-28 19:19:00,48.0,24.8,29.45,WNW,292,5.8,5.8,40,0.00,CLR,,0.00,WeatherDisplay:10.37,2013-03-01 01:19:00,
2013-02-28 19:24:00,47.0,23.9,29.45,WNW,292,6.0,6.0,40,0.00,CLR,,0.00,WeatherDisplay:10.37,2013-03-01 01:24:00,
2013-02-28 19:29:00,47.0,23.9,29.45,NW,315,5.8,5.8,40,0.00,CLR,,0.00,WeatherDisplay:10.37,2013-03-01 01:29:00,
2013-02-28 19:34:00,47.0,23.9,29.45,NW,315,5.8,5.8,40,0.00,CLR,,0.00,WeatherDisplay:10.37,2013-03-01 01:34:00,
2013-02-28 19:39:00,47.0,23.9,29.45,WNW,292,6.0,6.0,40,0.00,CLR,,0.00,WeatherDisplay:10.37,2013-03-01 01:39:00,
2013-02-28 19:44:00,47.0,23.9,29.45,NW,315,9.2,9.2,40,0.00,CLR,,0.00,WeatherDisplay:10.37,2013-03-01 01:44:00,
2013-02-28 19:49:00,48.0,24.2,29.45,NNW,337,6.9,6.9,39,0.00,CLR,,0.00,WeatherDisplay:10.37,2013-03-01 01:49:00,
2013-02-28 19:54:00,48.0,24.2,29.45,NNW,337,6.0,6.0,39,0.00,CLR,,0.00,WeatherDisplay:10.37,2013-03-01 01:54:00,
2013-02-28 19:59:00,48.0,23.6,29.45,NNW,337,7.0,7.0,38,0.00,CLR,,0.00,WeatherDisplay:10.37,2013-03-01 01:59:00,
2013-02-28 20:04:00,47.0,22.7,29.45,NW,315,8.1,8.1,38,0.00,CLR,,0.00,WeatherDisplay:10.37,2013-03-01 02:04:00,
2013-02-28 20:09:00,48.0,23.6,29.46,NNW,337,8.1,8.1,38,0.00,CLR,,0.00,WeatherDisplay:10.37,2013-03-01 02:09:00,
2013-02-28 20:14:00,47.0,23.3,29.46,WNW,292,6.0,6.0,39,0.00,CLR,,0.00,WeatherDisplay:10.37,2013-03-01 02:14:00,
2013-02-28 20:19:00,47.0,23.9,29.46,WNW,292,8.1,8.1,40,0.00,CLR,,0.00,WeatherDisplay:10.37,2013-03-01 02:19:00,
2013-02-28 20:24:00,47.0,23.9,29.46,NW,315,6.0,6.0,40,0.00,CLR,,0.00,WeatherDisplay:10.37,2013-03-01 02:24:00,
2013-02-28 20:29:00,47.0,23.9,29.45,WNW,292,9.2,9.2,40,0.00,CLR,,0.00,WeatherDisplay:10.37,2013-03-01 02:29:00,
2013-02-28 20:34:00,47.0,25.1,29.45,WNW,292,7.0,7.0,42,0.00,CLR,,0.00,WeatherDisplay:10.37,2013-03-01 02:34:00,
2013-02-28 20:39:00,47.0,25.1,29.45,NW,315,6.9,6.9,42,0.00,CLR,,0.00,WeatherDisplay:10.37,2013-03-01 02:39:00,
2013-02-28 20:44:00,46.0,24.2,29.45,WNW,292,5.8,5.8,42,0.00,CLR,,0.00,WeatherDisplay:10.37,2013-03-01 02:44:00,
2013-02-28 20:49:00,46.0,24.7,29.45,NNW,337,5.8,5.8,43,0.00,CLR,,0.00,WeatherDisplay:10.37,2013-03-01 02:49:00,
2013-02-28 20:54:00,46.0,24.7,29.45,NNW,337,5.8,5.8,43,0.00,CLR,,0.00,WeatherDisplay:10.37,2013-03-01 02:54:00,
2013-02-28 20:59:00,46.0,25.8,29.45,NNW,337,6.9,6.9,45,0.00,CLR,,0.00,WeatherDisplay:10.37,2013-03-01 02:59:00,
2013-02-28 21:04:00,45.0,24.9,29.45,NW,315,5.8,5.8,45,0.00,CLR,,0.00,WeatherDisplay:10.37,2013-03-01 03:04:00,
2013-02-28 21:09:00,45.0,25.4,29.45,WNW,292,6.9,6.9,46,0.00,CLR,,0.00,WeatherDisplay:10.37,2013-03-01 03:09:00,
2013-02-28 21:14:00,45.0,25.4,29.45,NNW,337,5.8,5.8,46,0.00,CLR,,0.00,WeatherDisplay:10.37,2013-03-01 03:14:00,
2013-02-28 21:19:00,45.0,26.0,29.46,West,270,3.5,3.5,47,0.00,CLR,,0.00,WeatherDisplay:10.37,2013-03-01 03:19:00,
2013-02-28 21:24:00,45.0,26.5,29.46,NW,315,6.9,6.9,48,0.00,CLR,,0.00,WeatherDisplay:10.37,2013-03-01 03:24:00,
2013-02-28 21:29:00,44.0,25.5,29.46,NW,315,6.0,6.0,48,0.00,CLR,,0.00,WeatherDisplay:10.37,2013-03-01 03:29:00,
2013-02-28 21:34:00,44.0,25.5,29.46,West,270,4.6,5.3,48,0.00,CLR,,0.00,WeatherDisplay:10.37,2013-03-01 03:34:00,
2013-02-28 21:39:00,44.0,25.5,29.46,West,270,6.0,6.0,48,0.00,CLR,,0.00,WeatherDisplay:10.37,2013-03-01 03:39:00,
2013-02-28 21:44:00,44.0,26.0,29.47,North,360,6.0,6.0,49,0.00,CLR,,0.00,WeatherDisplay:10.37,2013-03-01 03:44:00,
2013-02-28 21:50:00,44.0,26.0,29.47,WNW,292,5.8,5.8,49,0.00,CLR,,0.00,WeatherDisplay:10.37,2013-03-01 03:50:00,
2013-02-28 21:55:00,44.0,26.5,29.46,NNW,337,6.9,6.9,50,0.00,CLR,,0.00,WeatherDisplay:10.37,2013-03-01 03:55:00,
2013-02-28 22:00:00,44.0,26.5,29.47,WNW,292,6.9,6.9,50,0.00,CLR,,0.00,WeatherDisplay:10.37,2013-03-01 04:00:00,
2013-02-28 22:05:00,44.0,26.5,29.47,NW,315,6.9,6.9,50,0.00,CLR,,0.00,WeatherDisplay:10.37,2013-03-01 04:05:00,
2013-02-28 22:10:00,44.0,26.5,29.47,NNW,337,6.9,6.9,50,0.00,CLR,,0.00,WeatherDisplay:10.37,2013-03-01 04:10:00,
2013-02-28 22:15:00,44.0,26.5,29.47,NNW,337,6.9,6.9,50,0.00,CLR,,0.00,WeatherDisplay:10.37,2013-03-01 04:15:00,
2013-02-28 22:20:00,44.0,26.5,29.47,NW,315,6.0,6.0,50,0.00,CLR,,0.00,WeatherDisplay:10.37,2013-03-01 04:20:00,
2013-02-28 22:25:00,43.0,26.1,29.47,NW,315,5.8,5.8,51,0.00,CLR,,0.00,WeatherDisplay:10.37,2013-03-01 04:25:00,
2013-02-28 22:30:00,43.0,26.1,29.47,WNW,292,7.0,7.0,51,0.00,CLR,,0.00,WeatherDisplay:10.37,2013-03-01 04:30:00,
2013-02-28 22:35:00,43.0,26.6,29.47,WNW,292,7.0,7.0,52,0.00,CLR,,0.00,WeatherDisplay:10.37,2013-03-01 04:35:00,
2013-02-28 22:40:00,43.0,26.1,29.47,NW,315,6.0,6.0,51,0.00,CLR,,0.00,WeatherDisplay:10.37,2013-03-01 04:40:00,
2013-02-28 22:45:00,43.0,26.1,29.47,WNW,292,6.0,6.0,51,0.00,CLR,,0.00,WeatherDisplay:10.37,2013-03-01 04:45:00,
2013-02-28 22:50:00,43.0,26.1,29.47,NW,315,6.0,6.0,51,0.00,CLR,,0.00,WeatherDisplay:10.37,2013-03-01 04:50:00,
2013-02-28 22:55:00,43.0,26.1,29.47,NW,315,5.8,5.8,51,0.00,CLR,,0.00,WeatherDisplay:10.37,2013-03-01 04:55:00,
2013-02-28 23:00:00,43.0,26.1,29.47,WNW,292,6.9,6.9,51,0.00,CLR,,0.00,WeatherDisplay:10.37,2013-03-01 05:00:00,
2013-02-28 23:06:00,42.0,25.6,29.47,NW,315,6.0,6.0,52,0.00,CLR,,0.00,WeatherDisplay:10.37,2013-03-01 05:06:00,
2013-02-28 23:11:00,42.0,25.6,29.46,NW,315,3.5,3.5,52,0.00,CLR,,0.00,WeatherDisplay:10.37,2013-03-01 05:11:00,
2013-02-28 23:16:00,41.0,24.7,29.46,NNW,337,2.3,2.3,52,0.00,CLR,,0.00,WeatherDisplay:10.37,2013-03-01 05:16:00,
2013-02-28 23:21:00,41.0,25.2,29.46,NNW,337,3.5,3.5,53,0.00,CLR,,0.00,WeatherDisplay:10.37,2013-03-01 05:21:00,
2013-02-28 23:26:00,41.0,25.6,29.46,NW,315,1.2,0.0,54,0.00,CLR,,0.00,WeatherDisplay:10.37,2013-03-01 05:26:00,
2013-02-28 23:31:00,40.0,24.7,29.46,NW,315,2.3,2.3,54,0.00,CLR,,0.00,WeatherDisplay:10.37,2013-03-01 05:31:00,
2013-02-28 23:36:00,40.0,25.6,29.46,NW,315,3.5,3.5,56,0.00,CLR,,0.00,WeatherDisplay:10.37,2013-03-01 05:36:00,
2013-02-28 23:41:00,40.0,25.6,29.46,NW,315,2.3,2.3,56,0.00,CLR,,0.00,WeatherDisplay:10.37,2013-03-01 05:41:00,
2013-02-28 23:46:00,39.0,24.6,29.46,NW,315,1.2,1.2,56,0.00,CLR,,0.00,WeatherDisplay:10.37,2013-03-01 05:46:00,
2013-02-28 23:51:00,39.0,25.0,29.46,NW,315,0.0,0.0,57,0.00,CLR,,0.00,WeatherDisplay:10.37,2013-03-01 05:51:00,
2013-02-28 23:56:00,38.0,24.1,29.46,NW,315,0.0,0.0,57,0.00,CLR,,0.00,WeatherDisplay:10.37,2013-03-01 05:56:00,